User: anonymous   Login
Location: Deuil
(48.9767°N, 2.3272°E)
Time: 23:21:53
(UTC+00:00)
Language:

deb Meteor-2 - Orbit

View from above orbital plane
View from above orbital plane
View from above satellite
View from above satellite

Ground track
Ground track

The orbit data is extracted from the following two-line orbital elements,

1 08110U 75064D   22221.88946920  .00000225  00000-0  11691-3 0  9997
2 08110  81.3464  39.2062 0034311  53.3397 307.0920 14.11099337423044
Epoch (UTC): 09 August 2022 21:20:50
Eccentricity: 0.0034311
inclination: 81.3464°
perigee height: 831 km
apogee height: 880 km
right ascension of ascending node: 39.2062°
argument of perigee: 53.3397°
revolutions per day: 14.11099337
mean anomaly at epoch: 307.0920°
orbit number at epoch: 42304

The dashed part of the orbit path shows where the satellite is in the earth's shadow,  

DLR